Location: Aulus
(42.7909°N, 1.3399°E)
Time: 06:50:20
(UTC+00:00)

USA 229 - Pass Details

Date: 19 May 2025
Orbit: 872 x 1339 km, 63.4° (Epoch: 17 June)

Event Time Altitude Azimuth Distance (km) Brightness Sun altitude
Exits shadow 23:20:51 72° 163° (SSE) 1,000 3.3 -26.8°
Maximum altitude 23:21:19 76° 122° (ESE) 987 3.3 -26.8°
Drops below altitude 10° 23:27:55 10° 39° (NE) 2,843 6.5 -27.0°
Sets 23:30:41 0° 38° (NE) 3,871 7.3 -27.0°
